owner,sensor,date,latitude,longitude,vertical_datum,wind_speed,wind_to_direction,wind_speed_of_gust,qcFlag 
TABS,ioos:station:wmo:42043:1,2012-05-01T00:00:00Z,28.9818,-94.9186,4.0,6.821033646,124.6689307,8.99,'11111222,11111222,11111222' 
TABS,ioos:station:wmo:42043:1,2012-05-01T00:30:00Z,28.9818,-94.9186,4.0,6.653239812,129.1443158,8.54,'11111222,11111222,11111222' 
TABS,ioos:station:wmo:42043:1,2012-05-01T01:00:00Z,28.9818,-94.9186,4.0,6.871426344,125.7027971,9.38,'11111222,11111222,11111222' 
TABS,ioos:station:wmo:42043:1,2012-05-01T01:30:00Z,28.9818,-94.9186,4.0,7.780347036,122.9346821,10.63,'11111222,11111222,11111222' 
TABS,ioos:station:wmo:42043:1,2012-05-01T02:00:00Z,28.9818,-94.9186,4.0,9.217418294,128.8348793,11.66,'11111222,11111222,11111222' 
TABS,ioos:station:wmo:42043:1,2012-05-01T02:30:00Z,28.9818,-94.9186,4.0,10.13074528,130.3562446,12.84,'11111222,11111222,11111222' 
TABS,ioos:station:wmo:42043:1,2012-05-01T03:00:00Z,28.9818,-94.9186,4.0,8.865263673,136.9657956,10.73,'11111222,11111222,11111222' 
TABS,ioos:station:wmo:42043:1,2012-05-01T03:30:00Z,28.9818,-94.9186,4.0,7.624604908,140.1081396,10.37,'11111222,11111222,11111222' 
TABS,ioos:station:wmo:42043:1,2012-05-01T04:00:00Z,28.9818,-94.9186,4.0,8.128000984,143.1022024,11.29,'11111222,11111222,11111222' 
TABS,ioos:station:wmo:42043:1,2012-05-01T04:30:00Z,28.9818,-94.9186,4.0,9.281476176,141.5622313,12.53,'11111222,11111222,11111222' 
TABS,ioos:station:wmo:42043:1,2012-05-01T05:00:00Z,28.9818,-94.9186,4.0,9.761091128,140.9463048,12.38,'11111222,11111222,11111222' 
TABS,ioos:station:wmo:42043:1,2012-05-01T05:30:00Z,28.9818,-94.9186,4.0,9.431065687,139.3001685,12.01,'11111222,11111222,11111222' 
TABS,ioos:station:wmo:42043:1,2012-05-01T06:00:00Z,28.9818,-94.9186,4.0,8.018191816,146.2904031,10.91,'11111222,11111222,11111222' 
TABS,ioos:station:wmo:42043:1,2012-05-01T06:30:00Z,28.9818,-94.9186,4.0,7.694491536,145.4840981,9.87,'11111222,11111222,11111222' 
TABS,ioos:station:wmo:42043:1,2012-05-01T07:00:00Z,28.9818,-94.9186,4.0,7.678020578,145.3995295,9.56,'11111222,11111222,11111222' 
TABS,ioos:station:wmo:42043:1,2012-05-01T07:30:00Z,28.9818,-94.9186,4.0,6.95041006,147.9337355,9.13,'11111222,11111222,11111222' 
TABS,ioos:station:wmo:42043:1,2012-05-01T08:00:00Z,28.9818,-94.9186,4.0,5.822722731,148.4121213,8.05,'11111222,11111222,11111222' 
TABS,ioos:station:wmo:42043:1,2012-05-01T08:30:00Z,28.9818,-94.9186,4.0,5.550873805,154.4969853,7.09,'11111222,11111222,11111222' 
TABS,ioos:station:wmo:42043:1,2012-05-01T09:00:00Z,28.9818,-94.9186,4.0,6.238629657,153.4352214,7.74,'11111222,11111222,11111222' 
TABS,ioos:station:wmo:42043:1,2012-05-01T09:30:00Z,28.9818,-94.9186,4.0,5.944249322,156.7130793,7.9,'11111222,11111222,11111222' 
TABS,ioos:station:wmo:42043:1,2012-05-01T10:00:00Z,28.9818,-94.9186,4.0,5.657358041,161.3411195,7.22,'11111222,11111222,11111222' 
TABS,ioos:station:wmo:42043:1,2012-05-01T10:30:00Z,28.9818,-94.9186,4.0,5.585812385,153.0682407,7.25,'11111222,11111222,11111222' 
TABS,ioos:station:wmo:42043:1,2012-05-01T11:00:00Z,28.9818,-94.9186,4.0,5.299745277,144.600859,6.95,'11111222,11111222,11111222' 
TABS,ioos:station:wmo:42043:1,2012-05-01T11:30:00Z,28.9818,-94.9186,4.0,5.473024758,134.8522653,7.02,'11111222,11111222,11111222' 
TABS,ioos:station:wmo:42043:1,2012-05-01T12:00:00Z,28.9818,-94.9186,4.0,5.931247761,131.2407738,7.43,'11111222,11111222,11111222' 
TABS,ioos:station:wmo:42043:1,2012-05-01T12:30:00Z,28.9818,-94.9186,4.0,6.714648167,123.6430775,8.51,'11111222,11111222,11111222' 
TABS,ioos:station:wmo:42043:1,2012-05-01T13:00:00Z,28.9818,-94.9186,4.0,7.866701977,116.9888493,10.3,'11111222,11111222,11111222' 
TABS,ioos:station:wmo:42043:1,2012-05-01T13:30:00Z,28.9818,-94.9186,4.0,7.471358645,113.3399304,10.83,'11111222,11111222,11111222' 
TABS,ioos:station:wmo:42043:1,2012-05-01T14:00:00Z,28.9818,-94.9186,4.0,5.995731815,121.3574328,8.28,'11111222,11111222,11111222' 
TABS,ioos:station:wmo:42043:1,2012-05-01T14:30:00Z,28.9818,-94.9186,4.0,4.724510557,122.3785249,6.1,'11111222,11111222,11111222' 
TABS,ioos:station:wmo:42043:1,2012-05-01T15:00:00Z,28.9818,-94.9186,4.0,5.265301511,117.9768268,6.46,'11111222,11111222,11111222' 
TABS,ioos:station:wmo:42043:1,2012-05-01T15:30:00Z,28.9818,-94.9186,4.0,4.896335364,120.703216,6.3,'11111222,11111222,11111222' 
TABS,ioos:station:wmo:42043:1,2012-05-01T16:00:00Z,28.9818,-94.9186,4.0,4.4456833,117.3147067,5.82,'11111222,11111222,11111222' 
TABS,ioos:station:wmo:42043:1,2012-05-01T16:30:00Z,28.9818,-94.9186,4.0,4.810072765,119.6565855,6.26,'11111222,11111222,11111222' 
TABS,ioos:station:wmo:42043:1,2012-05-01T17:00:00Z,28.9818,-94.9186,4.0,4.915221256,109.614993,6.18,'11111222,11111222,11111222' 
TABS,ioos:station:wmo:42043:1,2012-05-01T17:30:00Z,28.9818,-94.9186,4.0,5.052019398,104.0916442,6.37,'11111222,11111222,11111222' 
TABS,ioos:station:wmo:42043:1,2012-05-01T18:00:00Z,28.9818,-94.9186,4.0,5.187725899,116.3184475,6.84,'11111222,11111222,11111222' 
TABS,ioos:station:wmo:42043:1,2012-05-01T18:30:00Z,28.9818,-94.9186,4.0,5.456784768,109.9296567,6.9,'11111222,11111222,11111222' 
TABS,ioos:station:wmo:42043:1,2012-05-01T19:00:00Z,28.9818,-94.9186,4.0,5.399416635,107.126515,7.05,'11111222,11111222,11111222' 
TABS,ioos:station:wmo:42043:1,2012-05-01T19:30:00Z,28.9818,-94.9186,4.0,5.281098371,108.092243,6.68,'11111222,11111222,11111222' 
TABS,ioos:station:wmo:42043:1,2012-05-01T20:00:00Z,28.9818,-94.9186,4.0,5.307692531,112.6036255,7.1,'11111222,11111222,11111222' 
TABS,ioos:station:wmo:42043:1,2012-05-01T20:30:00Z,28.9818,-94.9186,4.0,5.295318687,109.8725503,6.45,'11111222,11111222,11111222' 
TABS,ioos:station:wmo:42043:1,2012-05-01T21:00:00Z,28.9818,-94.9186,4.0,5.215841255,113.8624723,6.51,'11111222,11111222,11111222' 
TABS,ioos:station:wmo:42043:1,2012-05-01T21:30:00Z,28.9818,-94.9186,4.0,4.986231042,111.1616313,6.45,'11111222,11111222,11111222' 
TABS,ioos:station:wmo:42043:1,2012-05-01T22:00:00Z,28.9818,-94.9186,4.0,5.232064602,105.9758639,6.81,'11111222,11111222,11111222' 
TABS,ioos:station:wmo:42043:1,2012-05-01T22:30:00Z,28.9818,-94.9186,4.0,5.234730175,103.0278227,6.57,'11111222,11111222,11111222' 
TABS,ioos:station:wmo:42043:1,2012-05-01T23:00:00Z,28.9818,-94.9186,4.0,6.0280428,105.0971139,8.0,'11111222,11111222,11111222' 
TABS,ioos:station:wmo:42043:1,2012-05-01T23:30:00Z,28.9818,-94.9186,4.0,6.044319647,101.161604,7.99,'11111222,11111222,11111222' 
TABS,ioos:station:wmo:42043:1,2012-05-02T00:00:00Z,28.9818,-94.9186,4.0,6.242155077,106.6644592,7.87,'11111222,11111222,11111222' 
TABS,ioos:station:wmo:42043:1,2012-05-02T00:30:00Z,28.9818,-94.9186,4.0,6.412214906,105.4670995,8.8,'11111222,11111222,11111222' 
TABS,ioos:station:wmo:42043:1,2012-05-02T01:00:00Z,28.9818,-94.9186,4.0,7.572800011,106.2575612,9.36,'11111222,11111222,11111222' 
TABS,ioos:station:wmo:42043:1,2012-05-02T01:30:00Z,28.9818,-94.9186,4.0,7.372448711,110.4017866,9.45,'11111222,11111222,11111222' 
TABS,ioos:station:wmo:42043:1,2012-05-02T02:00:00Z,28.9818,-94.9186,4.0,7.372706423,115.0360352,9.14,'11111222,11111222,11111222' 
TABS,ioos:station:wmo:42043:1,2012-05-02T02:30:00Z,28.9818,-94.9186,4.0,7.357207351,117.2619792,8.98,'11111222,11111222,11111222' 
TABS,ioos:station:wmo:42043:1,2012-05-02T03:00:00Z,28.9818,-94.9186,4.0,7.317410744,117.5109124,9.0,'11111222,11111222,11111222' 
TABS,ioos:station:wmo:42043:1,2012-05-02T03:30:00Z,28.9818,-94.9186,4.0,6.325164029,122.4090102,8.23,'11111222,11111222,11111222' 
TABS,ioos:station:wmo:42043:1,2012-05-02T04:00:00Z,28.9818,-94.9186,4.0,6.188263084,120.1701475,7.43,'11111222,11111222,11111222' 
TABS,ioos:station:wmo:42043:1,2012-05-02T04:30:00Z,28.9818,-94.9186,4.0,6.106422848,128.4842959,7.59,'11111222,11111222,11111222' 
TABS,ioos:station:wmo:42043:1,2012-05-02T05:00:00Z,28.9818,-94.9186,4.0,6.488890506,132.81452,8.22,'11111222,11111222,11111222' 
TABS,ioos:station:wmo:42043:1,2012-05-02T05:30:00Z,28.9818,-94.9186,4.0,6.514146145,133.6941266,8.21,'11111222,11111222,11111222' 
TABS,ioos:station:wmo:42043:1,2012-05-02T06:00:00Z,28.9818,-94.9186,4.0,5.922837158,138.5595742,7.37,'11111222,11111222,11111222' 
TABS,ioos:station:wmo:42043:1,2012-05-02T06:30:00Z,28.9818,-94.9186,4.0,6.105513901,139.3175816,7.5,'11111222,11111222,11111222' 
TABS,ioos:station:wmo:42043:1,2012-05-02T07:00:00Z,28.9818,-94.9186,4.0,5.904743856,132.117359,7.31,'11111222,11111222,11111222' 
TABS,ioos:station:wmo:42043:1,2012-05-02T07:30:00Z,28.9818,-94.9186,4.0,5.748886849,135.352683,7.09,'11111222,11111222,11111222' 
TABS,ioos:station:wmo:42043:1,2012-05-02T08:00:00Z,28.9818,-94.9186,4.0,5.541786715,131.1959757,6.95,'11111222,11111222,11111222' 
TABS,ioos:station:wmo:42043:1,2012-05-02T08:30:00Z,28.9818,-94.9186,4.0,5.934483971,136.4341147,7.22,'11111222,11111222,11111222' 
TABS,ioos:station:wmo:42043:1,2012-05-02T09:00:00Z,28.9818,-94.9186,4.0,5.789162288,144.278534,7.19,'11111222,11111222,11111222' 
TABS,ioos:station:wmo:42043:1,2012-05-02T09:30:00Z,28.9818,-94.9186,4.0,5.774400402,148.8153087,7.33,'11111222,11111222,11111222' 
TABS,ioos:station:wmo:42043:1,2012-05-02T10:00:00Z,28.9818,-94.9186,4.0,5.551882564,154.9584372,6.72,'11111222,11111222,11111222' 
TABS,ioos:station:wmo:42043:1,2012-05-02T10:30:00Z,28.9818,-94.9186,4.0,5.34176001,159.393998,6.57,'11111222,11111222,11111222' 
TABS,ioos:station:wmo:42043:1,2012-05-02T11:00:00Z,28.9818,-94.9186,4.0,3.809580029,155.9919654,4.8,'11111222,11111222,11111222' 
TABS,ioos:station:wmo:42043:1,2012-05-02T11:30:00Z,28.9818,-94.9186,4.0,3.725506677,154.0542379,5.16,'11111222,11111222,11111222' 
TABS,ioos:station:wmo:42043:1,2012-05-02T12:00:00Z,28.9818,-94.9186,4.0,3.445359198,151.5756264,4.22,'11111222,11111222,11111222' 
TABS,ioos:station:wmo:42043:1,2012-05-02T12:30:00Z,28.9818,-94.9186,4.0,2.975315109,151.7125634,4.01,'11111222,11111222,11111222' 
TABS,ioos:station:wmo:42043:1,2012-05-02T13:00:00Z,28.9818,-94.9186,4.0,2.666608333,155.165101,3.63,'11111222,11111222,11111222' 
TABS,ioos:station:wmo:42043:1,2012-05-02T13:30:00Z,28.9818,-94.9186,4.0,2.707397274,138.8940141,3.5,'11111222,11111222,11111222' 
TABS,ioos:station:wmo:42043:1,2012-05-02T14:00:00Z,28.9818,-94.9186,4.0,2.487930867,129.1277011,3.54,'11111222,11111222,11111222' 
TABS,ioos:station:wmo:42043:1,2012-05-02T14:30:00Z,28.9818,-94.9186,4.0,2.414000829,126.9177018,3.08,'11111222,11111222,11111222' 
TABS,ioos:station:wmo:42043:1,2012-05-02T15:00:00Z,28.9818,-94.9186,4.0,2.22733024,122.9055869,3.13,'11111222,11111222,11111222' 
TABS,ioos:station:wmo:42043:1,2012-05-02T15:30:00Z,28.9818,-94.9186,4.0,2.168985938,116.56541,2.87,'11111222,11111222,11111222' 
TABS,ioos:station:wmo:42043:1,2012-05-02T16:00:00Z,28.9818,-94.9186,4.0,2.022325394,112.3805036,2.92,'11111222,11111222,11111222' 
TABS,ioos:station:wmo:42043:1,2012-05-02T16:30:00Z,28.9818,-94.9186,4.0,2.252198925,131.760623,3.11,'11111222,11111222,11111222' 
TABS,ioos:station:wmo:42043:1,2012-05-02T17:00:00Z,28.9818,-94.9186,4.0,2.180022936,143.3932212,3.34,'11111222,11111222,11111222' 
TABS,ioos:station:wmo:42043:1,2012-05-02T17:30:00Z,28.9818,-94.9186,4.0,1.821565261,155.6864708,2.64,'11111222,11111222,11111222' 
TABS,ioos:station:wmo:42043:1,2012-05-02T18:00:00Z,28.9818,-94.9186,4.0,1.672423391,146.2152041,2.61,'11111222,11111222,11111222' 
TABS,ioos:station:wmo:42043:1,2012-05-02T18:30:00Z,28.9818,-94.9186,4.0,2.359830502,148.8699697,3.29,'11111222,11111222,11111222' 
TABS,ioos:station:wmo:42043:1,2012-05-02T19:00:00Z,28.9818,-94.9186,4.0,2.507987241,150.3687431,3.76,'11111222,11111222,11111222' 
TABS,ioos:station:wmo:42043:1,2012-05-02T19:30:00Z,28.9818,-94.9186,4.0,2.623661564,156.1708167,3.8,'11111222,11111222,11111222' 
TABS,ioos:station:wmo:42043:1,2012-05-02T20:00:00Z,28.9818,-94.9186,4.0,2.644390289,167.3304258,3.56,'11111222,11111222,11111222' 
TABS,ioos:station:wmo:42043:1,2012-05-02T20:30:00Z,28.9818,-94.9186,4.0,3.281981109,164.99011,4.08,'11111222,11111222,11111222' 
TABS,ioos:station:wmo:42043:1,2012-05-02T21:00:00Z,28.9818,-94.9186,4.0,3.99275594,166.9733569,4.85,'11111222,11111222,11111222' 
TABS,ioos:station:wmo:42043:1,2012-05-02T21:30:00Z,28.9818,-94.9186,4.0,3.657717868,168.168053,4.76,'11111222,11111222,11111222' 
TABS,ioos:station:wmo:42043:1,2012-05-02T22:00:00Z,28.9818,-94.9186,4.0,3.993219253,173.8184835,4.83,'11111222,11111222,11111222' 
TABS,ioos:station:wmo:42043:1,2012-05-02T22:30:00Z,28.9818,-94.9186,4.0,4.312968815,177.8742022,5.31,'11111222,11111222,11111222' 
TABS,ioos:station:wmo:42043:1,2012-05-02T23:00:00Z,28.9818,-94.9186,4.0,4.890654353,179.062942,5.72,'11111222,11111222,11111222' 
TABS,ioos:station:wmo:42043:1,2012-05-02T23:30:00Z,28.9818,-94.9186,4.0,5.070355017,180.6782338,6.09,'11111222,11111222,11111222' 
TABS,ioos:station:wmo:42043:1,2012-05-03T00:00:00Z,28.9818,-94.9186,4.0,5.182123117,171.1195721,6.69,'11111222,11111222,11111222' 
TABS,ioos:station:wmo:42043:1,2012-05-03T00:30:00Z,28.9818,-94.9186,4.0,5.056925944,170.6682969,6.07,'11111222,11111222,11111222' 
TABS,ioos:station:wmo:42043:1,2012-05-03T01:00:00Z,28.9818,-94.9186,4.0,5.725041485,168.0033392,7.42,'11111222,11111222,11111222' 
TABS,ioos:station:wmo:42043:1,2012-05-03T01:30:00Z,28.9818,-94.9186,4.0,6.074248925,167.9318336,7.38,'11111222,11111222,11111222' 
TABS,ioos:station:wmo:42043:1,2012-05-03T02:00:00Z,28.9818,-94.9186,4.0,5.983519031,168.8217593,7.63,'11111222,11111222,11111222' 
TABS,ioos:station:wmo:42043:1,2012-05-03T02:30:00Z,28.9818,-94.9186,4.0,6.215343916,168.0213734,8.33,'11111222,11111222,11111222' 
TABS,ioos:station:wmo:42043:1,2012-05-03T03:00:00Z,28.9818,-94.9186,4.0,5.841446739,162.4648376,7.52,'11111222,11111222,11111222' 
TABS,ioos:station:wmo:42043:1,2012-05-03T03:30:00Z,28.9818,-94.9186,4.0,5.413557056,167.7354654,7.36,'11111222,11111222,11111222' 
TABS,ioos:station:wmo:42043:1,2012-05-03T04:00:00Z,28.9818,-94.9186,4.0,5.321024337,169.3871946,6.94,'11111222,11111222,11111222' 
TABS,ioos:station:wmo:42043:1,2012-05-03T04:30:00Z,28.9818,-94.9186,4.0,4.997299271,168.1056753,6.45,'11111222,11111222,11111222' 
TABS,ioos:station:wmo:42043:1,2012-05-03T05:00:00Z,28.9818,-94.9186,4.0,4.86491521,162.9061803,6.06,'11111222,11111222,11111222' 
TABS,ioos:station:wmo:42043:1,2012-05-03T05:30:00Z,28.9818,-94.9186,4.0,4.506317787,165.8714881,5.78,'11111222,11111222,11111222' 
TABS,ioos:station:wmo:42043:1,2012-05-03T06:00:00Z,28.9818,-94.9186,4.0,3.967291267,174.6488914,5.15,'11111222,11111222,11111222' 
TABS,ioos:station:wmo:42043:1,2012-05-03T06:30:00Z,28.9818,-94.9186,4.0,3.686570222,176.5789992,4.5,'11111222,11111222,11111222' 
TABS,ioos:station:wmo:42043:1,2012-05-03T07:00:00Z,28.9818,-94.9186,4.0,4.100548744,185.7385969,5.2,'11111222,11111222,11111222' 
TABS,ioos:station:wmo:42043:1,2012-05-03T07:30:00Z,28.9818,-94.9186,4.0,4.411915684,193.5009634,5.68,'11111222,11111222,11111222' 
TABS,ioos:station:wmo:42043:1,2012-05-03T08:00:00Z,28.9818,-94.9186,4.0,4.034067426,186.2619647,5.09,'11111222,11111222,11111222' 
TABS,ioos:station:wmo:42043:1,2012-05-03T08:30:00Z,28.9818,-94.9186,4.0,3.580223457,179.3600623,4.48,'11111222,11111222,11111222' 
TABS,ioos:station:wmo:42043:1,2012-05-03T09:00:00Z,28.9818,-94.9186,4.0,3.633249235,166.3082285,4.48,'11111222,11111222,11111222' 
TABS,ioos:station:wmo:42043:1,2012-05-03T09:30:00Z,28.9818,-94.9186,4.0,3.369643898,159.6830267,4.29,'11111222,11111222,11111222' 
TABS,ioos:station:wmo:42043:1,2012-05-03T10:00:00Z,28.9818,-94.9186,4.0,3.641771547,151.8167333,4.83,'11111222,11111222,11111222' 
TABS,ioos:station:wmo:42043:1,2012-05-03T10:30:00Z,28.9818,-94.9186,4.0,3.829412488,151.9629939,4.67,'11111222,11111222,11111222' 
TABS,ioos:station:wmo:42043:1,2012-05-03T11:00:00Z,28.9818,-94.9186,4.0,4.36807738,149.1490029,5.7,'11111222,11111222,11111222' 
TABS,ioos:station:wmo:42043:1,2012-05-03T11:30:00Z,28.9818,-94.9186,4.0,4.887289637,147.0255672,6.12,'11111222,11111222,11111222' 
TABS,ioos:station:wmo:42043:1,2012-05-03T12:00:00Z,28.9818,-94.9186,4.0,3.930801445,148.7365519,5.15,'11111222,11111222,11111222' 
TABS,ioos:station:wmo:42043:1,2012-05-03T12:30:00Z,28.9818,-94.9186,4.0,4.277686291,138.2221671,5.56,'11111222,11111222,11111222' 
TABS,ioos:station:wmo:42043:1,2012-05-03T13:00:00Z,28.9818,-94.9186,4.0,4.697371605,148.8482609,5.96,'11111222,11111222,11111222' 
TABS,ioos:station:wmo:42043:1,2012-05-03T13:30:00Z,28.9818,-94.9186,4.0,3.936864234,150.3095534,4.94,'11111222,11111222,11111222' 
TABS,ioos:station:wmo:42043:1,2012-05-03T14:00:00Z,28.9818,-94.9186,4.0,3.644447832,145.9613941,4.65,'11111222,11111222,11111222' 
TABS,ioos:station:wmo:42043:1,2012-05-03T14:30:00Z,28.9818,-94.9186,4.0,4.264844663,136.2353539,5.29,'11111222,11111222,11111222' 
TABS,ioos:station:wmo:42043:1,2012-05-03T15:00:00Z,28.9818,-94.9186,4.0,3.629435218,148.0618362,4.75,'11111222,11111222,11111222' 
TABS,ioos:station:wmo:42043:1,2012-05-03T15:30:00Z,28.9818,-94.9186,4.0,3.476046605,142.8337039,4.38,'11111222,11111222,11111222' 
TABS,ioos:station:wmo:42043:1,2012-05-03T16:00:00Z,28.9818,-94.9186,4.0,3.525478691,132.2412145,4.35,'11111222,11111222,11111222' 
TABS,ioos:station:wmo:42043:1,2012-05-03T16:30:00Z,28.9818,-94.9186,4.0,3.500357125,134.4215915,4.4,'11111222,11111222,11111222' 
TABS,ioos:station:wmo:42043:1,2012-05-03T17:00:00Z,28.9818,-94.9186,4.0,3.162546442,136.9222672,3.85,'11111222,11111222,11111222' 
TABS,ioos:station:wmo:42043:1,2012-05-03T17:30:00Z,28.9818,-94.9186,4.0,2.927456234,119.0169374,3.86,'11111222,11111222,11111222' 
TABS,ioos:station:wmo:42043:1,2012-05-03T18:00:00Z,28.9818,-94.9186,4.0,3.137036818,124.3489513,4.12,'11111222,11111222,11111222' 
TABS,ioos:station:wmo:42043:1,2012-05-03T18:30:00Z,28.9818,-94.9186,4.0,3.577946338,128.7601747,4.5,'11111222,11111222,11111222' 
TABS,ioos:station:wmo:42043:1,2012-05-03T19:00:00Z,28.9818,-94.9186,4.0,3.585596185,133.98334,4.65,'11111222,11111222,11111222' 
TABS,ioos:station:wmo:42043:1,2012-05-03T19:30:00Z,28.9818,-94.9186,4.0,3.293144394,130.0732173,4.22,'11111222,11111222,11111222' 
TABS,ioos:station:wmo:42043:1,2012-05-03T20:00:00Z,28.9818,-94.9186,4.0,3.169384798,136.7902221,4.1,'11111222,11111222,11111222' 
TABS,ioos:station:wmo:42043:1,2012-05-03T20:30:00Z,28.9818,-94.9186,4.0,3.738729731,146.0126951,4.67,'11111222,11111222,11111222' 
TABS,ioos:station:wmo:42043:1,2012-05-03T21:00:00Z,28.9818,-94.9186,4.0,4.026723234,132.6855831,4.93,'11111222,11111222,11111222' 
TABS,ioos:station:wmo:42043:1,2012-05-03T21:30:00Z,28.9818,-94.9186,4.0,4.077744475,132.2173014,5.19,'11111222,11111222,11111222' 
TABS,ioos:station:wmo:42043:1,2012-05-03T22:00:00Z,28.9818,-94.9186,4.0,4.05720347,119.5350386,5.36,'11111222,11111222,11111222' 
TABS,ioos:station:wmo:42043:1,2012-05-03T22:30:00Z,28.9818,-94.9186,4.0,3.919209104,129.8246169,5.27,'11111222,11111222,11111222' 
TABS,ioos:station:wmo:42043:1,2012-05-03T23:00:00Z,28.9818,-94.9186,4.0,4.410725564,115.2291413,5.7,'11111222,11111222,11111222' 
TABS,ioos:station:wmo:42043:1,2012-05-03T23:30:00Z,28.9818,-94.9186,4.0,4.919562989,119.0662691,6.42,'11111222,11111222,11111222' 
TABS,ioos:station:wmo:42043:1,2012-05-04T00:00:00Z,28.9818,-94.9186,4.0,5.685789303,108.5627917,7.04,'11111222,11111222,11111222' 
TABS,ioos:station:wmo:42043:1,2012-05-04T00:30:00Z,28.9818,-94.9186,4.0,5.827606713,110.1766774,7.42,'11111222,11111222,11111222' 
TABS,ioos:station:wmo:42043:1,2012-05-04T01:00:00Z,28.9818,-94.9186,4.0,5.535070009,114.6670577,7.19,'11111222,11111222,11111222' 
TABS,ioos:station:wmo:42043:1,2012-05-04T01:30:00Z,28.9818,-94.9186,4.0,5.177200015,118.4959929,6.33,'11111222,11111222,11111222' 
TABS,ioos:station:wmo:42043:1,2012-05-04T02:00:00Z,28.9818,-94.9186,4.0,5.136535798,118.3615489,6.64,'11111222,11111222,11111222' 
TABS,ioos:station:wmo:42043:1,2012-05-04T02:30:00Z,28.9818,-94.9186,4.0,5.038293362,125.1414208,6.3,'11111222,11111222,11111222' 
TABS,ioos:station:wmo:42043:1,2012-05-04T03:00:00Z,28.9818,-94.9186,4.0,5.671833919,123.8585138,7.02,'11111222,11111222,11111222' 
TABS,ioos:station:wmo:42043:1,2012-05-04T03:30:00Z,28.9818,-94.9186,4.0,5.850854638,125.890915,7.29,'11111222,11111222,11111222' 
TABS,ioos:station:wmo:42043:1,2012-05-04T04:00:00Z,28.9818,-94.9186,4.0,5.070779033,131.8027654,6.28,'11111222,11111222,11111222' 
TABS,ioos:station:wmo:42043:1,2012-05-04T04:30:00Z,28.9818,-94.9186,4.0,4.57283282,137.6591939,5.59,'11111222,11111222,11111222' 
TABS,ioos:station:wmo:42043:1,2012-05-04T05:00:00Z,28.9818,-94.9186,4.0,4.113404916,147.0056168,5.08,'11111222,11111222,11111222' 
TABS,ioos:station:wmo:42043:1,2012-05-04T05:30:00Z,28.9818,-94.9186,4.0,4.235008855,156.0377775,5.33,'11111222,11111222,11111222' 
TABS,ioos:station:wmo:42043:1,2012-05-04T06:00:00Z,28.9818,-94.9186,4.0,4.100792606,157.1869417,5.3,'11111222,11111222,11111222' 
TABS,ioos:station:wmo:42043:1,2012-05-04T06:30:00Z,28.9818,-94.9186,4.0,4.215317307,158.4260141,5.48,'11111222,11111222,11111222' 
TABS,ioos:station:wmo:42043:1,2012-05-04T07:00:00Z,28.9818,-94.9186,4.0,4.252081843,165.1469467,5.36,'11111222,11111222,11111222' 
TABS,ioos:station:wmo:42043:1,2012-05-04T07:30:00Z,28.9818,-94.9186,4.0,4.301162634,162.407827,5.4,'11111222,11111222,11111222' 
TABS,ioos:station:wmo:42043:1,2012-05-04T08:00:00Z,28.9818,-94.9186,4.0,4.518152277,158.7169242,6.01,'11111222,11111222,11111222' 
TABS,ioos:station:wmo:42043:1,2012-05-04T08:30:00Z,28.9818,-94.9186,4.0,4.21166238,157.819918,5.04,'11111222,11111222,11111222' 
TABS,ioos:station:wmo:42043:1,2012-05-04T09:00:00Z,28.9818,-94.9186,4.0,4.197618372,167.6194825,5.03,'11111222,11111222,11111222' 
TABS,ioos:station:wmo:42043:1,2012-05-04T09:30:00Z,28.9818,-94.9186,4.0,4.599967391,158.8464942,5.51,'11111222,11111222,11111222' 
TABS,ioos:station:wmo:42043:1,2012-05-04T10:00:00Z,28.9818,-94.9186,4.0,4.717297955,163.370807,5.7,'11111222,11111222,11111222' 
TABS,ioos:station:wmo:42043:1,2012-05-04T10:30:00Z,28.9818,-94.9186,4.0,4.433734318,162.1374248,5.61,'11111222,11111222,11111222' 
TABS,ioos:station:wmo:42043:1,2012-05-04T11:00:00Z,28.9818,-94.9186,4.0,4.415653972,172.7142684,5.33,'11111222,11111222,11111222' 
TABS,ioos:station:wmo:42043:1,2012-05-04T11:30:00Z,28.9818,-94.9186,4.0,4.430993117,169.7300847,5.29,'11111222,11111222,11111222' 
TABS,ioos:station:wmo:42043:1,2012-05-04T12:00:00Z,28.9818,-94.9186,4.0,4.743521898,161.1833394,6.02,'11111222,11111222,11111222' 
TABS,ioos:station:wmo:42043:1,2012-05-04T12:30:00Z,28.9818,-94.9186,4.0,4.314742171,166.1894453,5.47,'11111222,11111222,11111222' 
TABS,ioos:station:wmo:42043:1,2012-05-04T13:00:00Z,28.9818,-94.9186,4.0,3.430174923,153.1364202,4.4,'11111222,11111222,11111222' 
TABS,ioos:station:wmo:42043:1,2012-05-04T13:30:00Z,28.9818,-94.9186,4.0,3.786357088,143.9172945,4.65,'11111222,11111222,11111222' 
TABS,ioos:station:wmo:42043:1,2012-05-04T14:00:00Z,28.9818,-94.9186,4.0,4.247928907,141.4036863,5.24,'11111222,11111222,11111222' 
TABS,ioos:station:wmo:42043:1,2012-05-04T14:30:00Z,28.9818,-94.9186,4.0,4.696594511,139.6636539,6.0,'11111222,11111222,11111222' 
TABS,ioos:station:wmo:42043:1,2012-05-04T15:00:00Z,28.9818,-94.9186,4.0,5.173596428,137.428635,6.86,'11111222,11111222,11111222' 
TABS,ioos:station:wmo:42043:1,2012-05-04T15:30:00Z,28.9818,-94.9186,4.0,5.056055775,134.4393972,6.49,'11111222,11111222,11111222' 
TABS,ioos:station:wmo:42043:1,2012-05-04T16:00:00Z,28.9818,-94.9186,4.0,4.732874391,136.7982433,6.43,'11111222,11111222,11111222' 
TABS,ioos:station:wmo:42043:1,2012-05-04T16:30:00Z,28.9818,-94.9186,4.0,4.769454895,138.8256825,5.94,'11111222,11111222,11111222' 
TABS,ioos:station:wmo:42043:1,2012-05-04T17:00:00Z,28.9818,-94.9186,4.0,5.461959355,136.9292327,6.98,'11111222,11111222,11111222' 
TABS,ioos:station:wmo:42043:1,2012-05-04T17:30:00Z,28.9818,-94.9186,4.0,5.065816815,138.6015854,6.56,'11111222,11111222,11111222' 
TABS,ioos:station:wmo:42043:1,2012-05-04T18:00:00Z,28.9818,-94.9186,4.0,4.928539337,146.5036784,6.13,'11111222,11111222,11111222' 
TABS,ioos:station:wmo:42043:1,2012-05-04T18:30:00Z,28.9818,-94.9186,4.0,4.953402871,148.2033381,6.4,'11111222,11111222,11111222' 